Hourly Weather Bolshie Saltyki

Today, 23 June, Wednesday

Time Temperature Precipitation Wind Pressure Humidity
00:00 +24°C° 0 mm 3 mps 756 mmHg 74%
01:00 +22°C° 0 mm 3 mps 756 mmHg 76%
02:00 +23°C° 0 mm 2 mps 756 mmHg 78%
03:00 +21°C° 0 mm 2 mps 756 mmHg 79%
04:00 +23°C° 0 mm 2 mps 756 mmHg 78%
05:00 +24°C° 0 mm 3 mps 756 mmHg 78%
06:00 +25°C° 0 mm 3 mps 756 mmHg 77%
07:00 +26°C° 0 mm 3 mps 756 mmHg 71%
08:00 +27°C° 0 mm 3 mps 756 mmHg 65%
09:00 +29°C° 0 mm 3 mps 756 mmHg 59%
10:00 +30°C° 0 mm 4 mps 756 mmHg 56%
11:00 +32°C° 0 mm 4 mps 756 mmHg 52%
12:00 +32°C° 0 mm 4 mps 756 mmHg 49%
13:00 +33°C° 0 mm 4 mps 755 mmHg 49%
14:00 +33°C° 0 mm 3 mps 755 mmHg 48%
15:00 +33°C° 0 mm 3 mps 755 mmHg 48%
16:00 +29°C° 2.9 mm 4 mps 755 mmHg 57%
17:00 +25°C° 2.9 mm 5 mps 755 mmHg 66%
18:00 +21°C° 2.9 mm 6 mps 755 mmHg 76%
19:00 +21°C° 0.1 mm 5 mps 755 mmHg 77%
20:00 +21°C° 0.1 mm 4 mps 755 mmHg 78%
21:00 +21°C° 0.1 mm 4 mps 755 mmHg 79%
22:00 +20°C° 0.3 mm 3 mps 755 mmHg 82%
23:00 +20°C° 0.3 mm 2 mps 755 mmHg 85%

Tomorrow, 24 June, Thursday

Time Temperature Precipitation Wind Pressure Humidity
00:00 +20°C° 0.3 mm 2 mps 755 mmHg 89%
01:00 +20°C° 0 mm 2 mps 755 mmHg 87%
02:00 +20°C° 0 mm 2 mps 755 mmHg 86%
03:00 +20°C° 0 mm 2 mps 755 mmHg 85%
04:00 +21°C° 0.2 mm 2 mps 755 mmHg 84%
05:00 +21°C° 0.2 mm 2 mps 756 mmHg 83%
06:00 +23°C° 0.2 mm 1 mps 756 mmHg 82%
07:00 +24°C° 0 mm 1 mps 756 mmHg 78%
08:00 +25°C° 0 mm 1 mps 756 mmHg 74%
09:00 +26°C° 0 mm 1 mps 756 mmHg 70%
10:00 +27°C° 0 mm 1 mps 756 mmHg 67%
11:00 +28°C° 0 mm 1 mps 756 mmHg 63%
12:00 +29°C° 0 mm 1 mps 756 mmHg 60%
13:00 +29°C° 0 mm 1 mps 756 mmHg 59%
14:00 +29°C° 0 mm 1 mps 756 mmHg 58%
15:00 +30°C° 0 mm 1 mps 755 mmHg 57%
16:00 +29°C° 0 mm 1 mps 755 mmHg 60%
17:00 +29°C° 0 mm 1 mps 754 mmHg 64%
18:00 +29°C° 0 mm 1 mps 754 mmHg 67%
19:00 +27°C° 0.1 mm 2 mps 754 mmHg 70%
20:00 +26°C° 0.1 mm 2 mps 754 mmHg 74%
21:00 +24°C° 0.1 mm 3 mps 754 mmHg 77%
22:00 +24°C° 0.4 mm 3 mps 754 mmHg 81%
23:00 +23°C° 0.4 mm 2 mps 754 mmHg 84%

Day after tomorrow, 25 June, Friday

Time Temperature Precipitation Wind Pressure Humidity
00:00 +21°C° 0.4 mm 2 mps 754 mmHg 87%
01:00 +21°C° 0.2 mm 2 mps 754 mmHg 87%
02:00 +21°C° 0.2 mm 2 mps 753 mmHg 87%
03:00 +20°C° 0.2 mm 2 mps 753 mmHg 86%
04:00 +21°C° 0 mm 2 mps 753 mmHg 84%
05:00 +22°C° 0 mm 3 mps 753 mmHg 81%
06:00 +24°C° 0 mm 3 mps 753 mmHg 78%
07:00 +25°C° 0.1 mm 3 mps 753 mmHg 72%
08:00 +27°C° 0.1 mm 3 mps 753 mmHg 66%
09:00 +28°C° 0.1 mm 3 mps 753 mmHg 60%
10:00 +29°C° 0 mm 3 mps 753 mmHg 59%
11:00 +30°C° 0 mm 3 mps 753 mmHg 57%
12:00 +31°C° 0 mm 3 mps 753 mmHg 56%
13:00 +33°C° 0 mm 3 mps 753 mmHg 54%
14:00 +33°C° 0 mm 4 mps 752 mmHg 53%
15:00 +34°C° 0 mm 4 mps 752 mmHg 51%
16:00 +33°C° 0 mm 4 mps 752 mmHg 56%
17:00 +32°C° 0 mm 4 mps 752 mmHg 61%
18:00 +32°C° 0 mm 4 mps 751 mmHg 66%
19:00 +28°C° 0.2 mm 4 mps 751 mmHg 67%
20:00 +26°C° 0.2 mm 4 mps 751 mmHg 68%
21:00 +22°C° 0.2 mm 4 mps 751 mmHg 70%
22:00 +22°C° 0.1 mm 3 mps 751 mmHg 72%
23:00 +21°C° 0.1 mm 3 mps 751 mmHg 75%

26 June, Saturday

Time Temperature Precipitation Wind Pressure Humidity
00:00 +21°C° 0.1 mm 3 mps 751 mmHg 78%
01:00 +20°C° 0 mm 3 mps 751 mmHg 79%
02:00 +20°C° 0 mm 2 mps 751 mmHg 81%
03:00 +20°C° 0 mm 2 mps 751 mmHg 83%
04:00 +21°C° 0 mm 2 mps 751 mmHg 80%
05:00 +23°C° 0 mm 2 mps 751 mmHg 78%
06:00 +24°C° 0 mm 2 mps 751 mmHg 76%
07:00 +25°C° 0 mm 2 mps 751 mmHg 72%
08:00 +27°C° 0 mm 2 mps 751 mmHg 69%
09:00 +28°C° 0 mm 3 mps 751 mmHg 65%
10:00 +29°C° 0.1 mm 3 mps 751 mmHg 63%
11:00 +30°C° 0.1 mm 3 mps 751 mmHg 60%
12:00 +31°C° 0.1 mm 3 mps 751 mmHg 58%
13:00 +31°C° 0.4 mm 3 mps 751 mmHg 57%
14:00 +31°C° 0.4 mm 3 mps 751 mmHg 56%
15:00 +33°C° 0.4 mm 3 mps 751 mmHg 55%
16:00 +30°C° 0.8 mm 3 mps 751 mmHg 62%
17:00 +29°C° 0.8 mm 3 mps 750 mmHg 69%
18:00 +28°C° 0.8 mm 3 mps 750 mmHg 75%
19:00 +27°C° 1.1 mm 2 mps 750 mmHg 79%
20:00 +26°C° 1.1 mm 2 mps 750 mmHg 82%
21:00 +24°C° 1.1 mm 1 mps 751 mmHg 86%
22:00 +24°C° 0.3 mm 1 mps 751 mmHg 86%
23:00 +24°C° 0.3 mm 1 mps 751 mmHg 87%

27 June, Sunday

Time Temperature Precipitation Wind Pressure Humidity
00:00 +24°C° 0.3 mm 2 mps 751 mmHg 87%
01:00 +23°C° 0.1 mm 1 mps 751 mmHg 88%
02:00 +23°C° 0.1 mm 1 mps 751 mmHg 88%
03:00 +23°C° 0.1 mm 1 mps 751 mmHg 89%
04:00 +23°C° 0.1 mm 1 mps 751 mmHg 87%
05:00 +24°C° 0.1 mm 1 mps 751 mmHg 84%
06:00 +25°C° 0.1 mm 2 mps 751 mmHg 82%
07:00 +26°C° 0 mm 2 mps 751 mmHg 77%
08:00 +27°C° 0 mm 2 mps 751 mmHg 72%
09:00 +29°C° 0 mm 2 mps 751 mmHg 67%
10:00 +29°C° 0.2 mm 2 mps 751 mmHg 65%
11:00 +30°C° 0.2 mm 2 mps 751 mmHg 62%
12:00 +31°C° 0.2 mm 2 mps 751 mmHg 60%
13:00 +31°C° 0.1 mm 2 mps 751 mmHg 57%
14:00 +33°C° 0.1 mm 3 mps 751 mmHg 55%
15:00 +33°C° 0.1 mm 3 mps 750 mmHg 52%
16:00 +31°C° 0.1 mm 3 mps 750 mmHg 57%
17:00 +31°C° 0.1 mm 3 mps 750 mmHg 61%
18:00 +30°C° 0.1 mm 3 mps 750 mmHg 65%
19:00 +27°C° 1.4 mm 3 mps 750 mmHg 73%
20:00 +25°C° 1.4 mm 3 mps 750 mmHg 81%
21:00 +21°C° 1.4 mm 3 mps 750 mmHg 89%
22:00 +21°C° 0.1 mm 2 mps 750 mmHg 90%
23:00 +21°C° 0.1 mm 2 mps 750 mmHg 91%

28 June, Monday

Time Temperature Precipitation Wind Pressure Humidity
00:00 +22°C° 0.1 mm 1 mps 750 mmHg 92%
01:00 +21°C° 0 mm 1 mps 750 mmHg 92%
02:00 +21°C° 0 mm 1 mps 750 mmHg 93%
03:00 +19°C° 0 mm 0 mps 750 mmHg 93%
04:00 +20°C° 0 mm 0 mps 750 mmHg 91%
05:00 +20°C° 0 mm 0 mps 750 mmHg 89%
06:00 +21°C° 0 mm 0 mps 750 mmHg 87%
07:00 +24°C° 0 mm 1 mps 750 mmHg 83%
08:00 +25°C° 0 mm 1 mps 750 mmHg 79%
09:00 +26°C° 0 mm 2 mps 751 mmHg 75%
10:00 +27°C° 0 mm 2 mps 751 mmHg 72%
11:00 +27°C° 0 mm 2 mps 751 mmHg 69%
12:00 +28°C° 0 mm 2 mps 751 mmHg 66%
13:00 +28°C° 0.1 mm 2 mps 750 mmHg 65%
14:00 +29°C° 0.1 mm 2 mps 750 mmHg 64%
15:00 +29°C° 0.1 mm 2 mps 750 mmHg 63%
16:00 +28°C° 0.2 mm 2 mps 750 mmHg 67%
17:00 +28°C° 0.2 mm 3 mps 750 mmHg 71%
18:00 +27°C° 0.2 mm 3 mps 750 mmHg 75%
19:00 +26°C° 0.3 mm 3 mps 750 mmHg 81%
20:00 +24°C° 0.3 mm 3 mps 750 mmHg 86%
21:00 +22°C° 0.3 mm 3 mps 750 mmHg 92%
22:00 +21°C° 0.2 mm 3 mps 750 mmHg 92%
23:00 +21°C° 0.2 mm 3 mps 750 mmHg 93%
Show more